This is the latest recevied weather packets stored in our database for station/object KC9GSD. If no packets are shown the sender has not sent any weather packets the latest 10 day(s).
| Time | Temp. | Humidity | Pressure | Rain* | Wind** | Luminosity | Snow |
|---|---|---|---|---|---|---|---|
| 1777991288 | 20.56° C | 59% | 1014.9 hPa | 0 mm | - | 505 W/m² | - |
| 1777990986 | 21.11° C | 62% | 1014.7 hPa | 0 mm | - | 486 W/m² | - |
| 1777990683 | 20.56° C | 60% | 1014.8 hPa | 0 mm | - | 470 W/m² | - |
| 1777990380 | 21.67° C | 60% | 1014.9 hPa | 0 mm | - | 455 W/m² | - |
| 1777990075 | 21.11° C | 62% | 1014.9 hPa | 0 mm | - | 440 W/m² | - |
| 1777989772 | 21.11° C | 61% | 1014.9 hPa | 0 mm | - | 409 W/m² | - |
| 1777989469 | 20° C | 60% | 1014.9 hPa | 0 mm | - | 402 W/m² | - |
| 1777989166 | 20° C | 65% | 1015.1 hPa | 0 mm | - | 395 W/m² | - |
| 1777988862 | 19.44° C | 65% | 1014.8 hPa | 0 mm | - | 374 W/m² | - |
| 1777988560 | 20° C | 60% | 1014.7 hPa | 0 mm | - | 352 W/m² | - |
| 1777988256 | 19.44° C | 65% | 1014.7 hPa | 0 mm | - | 325 W/m² | - |
| 1777987953 | 19.44° C | 63% | 1014.8 hPa | 0 mm | - | 322 W/m² | - |
| 1777987648 | 18.89° C | 63% | 1014.7 hPa | 0 mm | - | 303 W/m² | - |
| 1777987346 | 17.78° C | 68% | 1014.7 hPa | 0 mm | - | 290 W/m² | - |
| 1777987043 | 17.22° C | 69% | 1014.6 hPa | 0 mm | - | 160 W/m² | - |
| 1777986740 | 16.67° C | 72% | 1014.8 hPa | 0 mm | - | 117 W/m² | - |
| 1777986438 | 16.67° C | 74% | 1014.9 hPa | 0 mm | - | 122 W/m² | - |
| 1777986137 | 16.11° C | 72% | 1014.9 hPa | 0 mm | - | 194 W/m² | - |
| 1777985833 | 15.56° C | 73% | 1014.6 hPa | 0 mm | - | 91 W/m² | - |
| 1777985530 | 15° C | 77% | 1014.8 hPa | 0 mm | - | 89 W/m² | - |
| 1777985227 | 15° C | 75% | 1014.7 hPa | 0 mm | - | 55 W/m² | - |
| 1777984923 | 14.44° C | 77% | 1014.6 hPa | 0 mm | - | 54 W/m² | - |
| 1777984619 | 14.44° C | 78% | 1014.8 hPa | 0 mm | - | 60 W/m² | - |
| 1777984316 | 14.44° C | 79% | 1014.9 hPa | 0 mm | - | 50 W/m² | - |
| 1777984013 | 13.89° C | 78% | 1014.8 hPa | 0 mm | - | 59 W/m² | - |
* Rain latest hour (hover to see other rain measurements)
** Current wind speed in m/s (hover to see current wind gust speed)